This demonstration page uses our WeatherBlox Daily Observations layout. Learn more.

Left ArrowRight Arrow

Hourly Observations for June 15, 2015

Temp ( °F °C ) Dew Point ( °F °C ) Humidity (%) Winds ( mph kmh ) Pressure ( in mb ) Visibility ( mi km ) Precip ( " mm )
12:31 am 00:31 Cloudy 69 20.6 66 18.9 90 90 NW 9 15 29.88 1012 10 16.0934 N/A
12:54 am 00:54 Cloudy with Light Rain 68 20 66 18.9 93 93 N 8 13 29.9 1012 7 11.26538 N/A
1:54 am 01:54 Cloudy with Rain 68 20 66 18.9 93 93 NE 8 13 29.9 1013 4 6.43736 0.03 0.762
2:54 am 02:54 Cloudy 68 20 66 18.9 93 93 N 7 11 29.88 1012 10 16.0934 0.01 0.254
3:54 am 03:54 Cloudy with Light Rain 68 20 66 18.9 93 93 NE 9 15 29.85 1011 10 16.0934 N/A
4:29 am 04:29 Cloudy with Nearby Thunderstorms 68 20 66 18.9 93 93 SW 6 9 29.88 1012 2.5 4.02335 0.07 1.778
4:38 am 04:38 Cloudy with Heavy Rain 68 20 66 19 94 94 ENE 7 11 29.88 1012 1.25 2.011675 N/A
4:54 am 04:54 Cloudy with Heavy Rain 67 19.4 66 18.9 97 97 NE 10 17 29.88 1012 1.25 2.011675 0.55 13.97
5:04 am 05:04 Cloudy with Rain 66 19 66 19 100 100 NNE 12 19 29.88 1012 3 4.82802 N/A
5:18 am 05:18 Cloudy with Nearby Thunderstorms 67 19.4 65 18.3 93 93 N 8 13 29.88 1012 4 6.43736 0.15 3.81
5:43 am 05:43 Cloudy with Rain 67 19.4 65 18.3 93 93 NE 8 13 29.91 1013 3 4.82802 0.24 6.096
5:54 am 05:54 Cloudy with Rain 66 18.9 65 18.3 96 96 NE 9 15 29.9 1012 4 6.43736 0.27 6.858
6:54 am 06:54 Cloudy with Heavy Rain 66 18.9 64 17.8 93 93 NNE 3 6 29.92 1013 2.5 4.02335 0.23 5.842
7:04 am 07:04 Cloudy with Heavy Rain 64 18 64 18 100 100 NNE 5 7 29.94 1014 1.5 2.41401 N/A
7:18 am 07:18 Cloudy with Rain 66 19 64 18 94 94 N 12 19 29.91 1013 3 4.82802 N/A
7:54 am 07:54 Cloudy with Light Rain 66 18.9 65 18.3 96 96 N 9 15 29.92 1013 4 6.43736 0.31 7.874
8:17 am 08:17 Cloudy with Light Rain 67 19.4 65 18.3 93 93 N 9 15 29.91 1013 5 8.0467 0.02 0.508
8:28 am 08:28 Cloudy with Light Rain 66 19 66 19 100 100 N 10 17 29.91 1013 4 6.43736 N/A
8:43 am 08:43 Cloudy with Light Rain 67 19.4 66 18.9 97 97 NNW 9 15 29.91 1013 2.5 4.02335 0.05 1.27
8:44 am 08:44 Cloudy with Light Rain 66 19 66 19 100 100 NNW 10 17 29.91 1013 4 6.43736 N/A
8:54 am 08:54 Cloudy with Light Rain 67 19.4 66 18.9 97 97 NNW 10 17 29.92 1013 6 9.65604 0.06 1.524
9:33 am 09:33 Cloudy with Rain 68 20 66 18.9 93 93 NNW 13 20 29.94 1014 1.75 2.816345 0.03 0.762
9:52 am 09:52 Cloudy with Rain 68 20 66 19 94 94 NNW 15 24 29.97 1015 1.5 2.41401 0.11 2.794
9:54 am 09:54 Cloudy with Rain 68 20 66 18.9 93 93 NNW 16 26 29.96 1015 1.5 2.41401 0.12 3.048
10:05 am 10:05 Cloudy with Rain 68 20 66 18.9 93 93 NNW 17 28 29.97 1015 2 3.21868 0.02 0.508
10:18 am 10:18 Cloudy with Light Rain 70 21 66 19 88 88 NNW 16 26 29.97 1015 4 6.43736 N/A
10:54 am 10:54 Cloudy with Light Rain 70 21.1 67 19.4 90 90 N 22 35 29.97 1015 4 6.43736 0.05 1.27
11:09 am 11:09 Cloudy with Light Rain 70 21.1 67 19.4 90 90 N 26 43 29.97 1015 4 6.43736 N/A
11:12 am 11:12 Cloudy with Light Rain 69 20.6 66 18.9 90 90 N 26 43 29.97 1015 4 6.43736 N/A
11:31 am 11:31 Cloudy with Light Rain 67 19.4 64 17.8 91 91 NNE 23 37 30 1016 4 6.43736 N/A
11:54 am 11:54 Cloudy with Light Rain 67 19.4 65 18.3 93 93 NNE 18 30 30.01 1016 4 6.43736 N/A
12:54 pm 12:54 Cloudy with Light Rain 69 20.6 65 18.3 87 87 ENE 16 26 29.99 1016 10 16.0934 0.01 0.254
1:38 pm 13:38 Cloudy 72 22 64 18 78 78 NNE 17 28 30 1016 10 16.0934 N/A
1:47 pm 13:47 Mostly Cloudy 71 21.7 65 18.3 81 81 N 20 31 30 1016 10 16.0934 N/A
1:54 pm 13:54 Cloudy 71 21.7 65 18.3 81 81 N 20 31 30.01 1016 10 16.0934 N/A
2:06 pm 14:06 Cloudy 72 22.2 65 18.3 79 79 N 21 33 30 1016 10 16.0934 N/A
2:16 pm 14:16 Mostly Cloudy 74 23.3 65 18.3 74 74 NNE 18 30 30 1016 10 16.0934 N/A
2:54 pm 14:54 Mostly Cloudy 76 24.4 65 18.3 69 69 NNE 17 28 30.01 1016 10 16.0934 N/A
3:54 pm 15:54 Mostly Sunny 77 25 64 17.8 64 64 NNE 14 22 30.01 1016 10 16.0934 N/A
4:54 pm 16:54 Sunny 78 25.6 64 17.8 62 62 NNE 18 30 30.02 1017 10 16.0934 N/A
5:54 pm 17:54 Mostly Sunny 77 25 64 17.8 64 64 N 16 26 30.01 1016 10 16.0934 N/A
6:54 pm 18:54 Mostly Sunny 73 22.8 62 16.7 69 69 N 15 24 30.03 1017 10 16.0934 N/A
7:54 pm 19:54 Mostly Cloudy 73 22.8 62 16.7 69 69 NNE 13 20 30.06 1018 10 16.0934 N/A
8:54 pm 20:54 Sunny 69 20.6 59 15 70 70 N 10 17 30.07 1018 10 16.0934 N/A
9:54 pm 21:54 Clear 65 18.3 59 15 81 81 N 9 15 30.1 1019 10 16.0934 N/A
10:54 pm 22:54 Clear 65 18.3 57 13.9 76 76 NNW 7 11 30.14 1021 10 16.0934 N/A
11:54 pm 23:54 Clear 59 15 57 13.9 93 93 N 5 7 30.16 1021 10 16.0934 N/A

Powered by AerisWeather